Location: ??????????
(54.4061°N, 22.6114°E)
Time: 16:12:30
(UTC+00:00)

ARGOS - Pass Details

Date: 23 October 2019
Orbit: 820 x 835 km, 98.5° (Epoch: 21 November)

Event Time Altitude Azimuth Distance (km) Brightness Sun altitude
Exits shadow 16:46:18 20° 86° (E) 1,833 4.3 -14.0°
Maximum altitude 16:48:18 25° 55° (NE) 1,628 4.2 -14.3°
Drops below altitude 10° 16:52:39 10° 2° (N) 2,461 5.6 -14.9°
Sets 16:55:23 0° 349° (N) 3,398 6.5 -15.3°
